EDT,Max TemperatureF,Mean TemperatureF,Min TemperatureF,Max Dew PointF,MeanDew PointF,Min DewpointF,Max Humidity, Mean Humidity, Min Humidity, Max Sea Level PressureIn, Mean Sea Level PressureIn, Min Sea Level PressureIn, Max VisibilityMiles, Mean VisibilityMiles, Min VisibilityMiles, Max Wind SpeedMPH, Mean Wind SpeedMPH, Max Gust SpeedMPH,PrecipitationIn, CloudCover, Events, WindDirDegrees
2013-3-1,39,34,28,32,28,25,96,72,55,29.70,29.63,29.54,10,10,3,12,4,20,0.00,6,,332
2013-3-2,39,34,30,27,25,24,80,66,60,29.69,29.67,29.64,10,10,10,14,7,21,0.00,7,,321
2013-3-3,37,34,30,29,26,22,82,72,65,29.65,29.62,29.57,10,8,2,14,8,20,0.00,8,Snow,298
2013-3-4,37,32,28,26,22,18,75,63,52,29.77,29.66,29.61,10,10,8,22,14,30,0.00,5,,308
2013-3-5,44,36,28,32,25,21,86,66,47,30.08,29.97,29.79,10,10,6,13,8,,0.00,7,Rain,320
2013-3-6,39,36,32,34,32,28,93,88,70,30.13,30.09,30.05,10,5,0,16,7,28,0.26,8,Fog-Rain-Snow,37
2013-3-7,34,32,30,30,28,25,93,85,75,30.09,30.06,30.02,10,2,0,16,11,25,0.26,8,Fog-Snow,358
2013-3-8,41,36,30,31,28,18,93,81,45,30.18,30.03,29.97,10,3,0,14,10,22,0.45,6,Fog-Snow,348
2013-3-9,55,37,19,29,19,10,92,54,17,30.37,30.26,30.17,10,10,8,9,5,,0.00,0,,30
2013-3-10,46,32,19,30,26,17,96,71,47,30.43,30.36,30.30,10,10,7,8,3,,0.00,0,,132
2013-3-11,51,40,30,40,33,28,89,71,50,30.32,30.21,30.13,10,10,10,12,4,,0.00,2,,164
2013-3-12,53,48,42,51,45,39,100,93,80,30.13,29.94,29.72,10,6,0,10,5,,0.40,8,Fog-Rain,147
2013-3-13,50,39,30,39,28,18,87,62,31,29.80,29.77,29.73,10,10,10,18,8,24,0.00,2,,302
2013-3-14,35,28,21,24,13,5,64,49,40,29.86,29.79,29.74,10,10,10,22,13,33,0.00,3,,293
2013-3-15,39,29,19,30,15,3,89,56,24,29.88,29.76,29.65,10,9,1,14,11,26,0.00,4,Snow,275
2013-3-16,39,31,25,24,14,8,72,49,30,29.90,29.81,29.71,10,10,10,12,6,,0.00,3,,309
2013-3-17,37,29,21,16,9,2,78,46,24,30.32,30.07,29.90,10,10,10,21,6,26,0.00,0,,320
2013-3-18,37,26,16,27,11,-4,93,57,17,30.47,30.33,30.22,10,7,1,9,4,,0.03,4,Snow,123
2013-3-19,34,31,27,32,29,23,100,91,85,30.21,29.89,29.66,10,1,0,10,6,21,0.85,8,Fog-Snow,51
2013-3-20,37,28,18,23,18,15,92,63,41,29.82,29.76,29.73,10,10,10,17,8,25,0.00,3,,278
2013-3-21,39,26,16,25,16,10,88,65,32,29.82,29.71,29.61,10,10,9,10,2,,0.00,6,,308
2013-3-22,39,32,24,19,16,12,63,52,39,29.76,29.68,29.64,10,10,10,16,9,25,0.00,3,,294
2013-3-23,42,34,27,20,18,16,72,51,36,29.81,29.73,29.67,10,10,10,23,12,34,0.00,4,,291
2013-3-24,45,38,32,23,21,19,64,52,39,29.83,29.80,29.74,10,10,10,16,9,23,0.00,3,,323
2013-3-25,44,35,28,27,25,22,78,64,53,29.78,29.66,29.54,10,10,10,14,5,25,0.00,4,,31
2013-3-26,50,43,35,29,23,17,73,50,28,29.81,29.70,29.57,10,10,10,14,7,22,0.00,5,,314
2013-3-27,55,43,32,29,22,18,62,45,28,29.89,29.81,29.77,10,10,10,17,8,25,0.00,3,,319
2013-3-28,51,44,37,34,30,27,87,63,43,30.04,29.96,29.89,10,10,10,12,7,,0.00,8,Rain,334
2013-3-29,57,46,35,32,29,26,78,55,32,30.07,30.04,29.99,10,10,10,13,7,18,0.00,5,,306
2013-3-30,55,45,32,32,22,14,76,46,20,30.12,30.07,30.02,10,10,10,16,7,22,0.00,2,,316
2013-3-31,59,43,27,40,25,18,85,54,20,30.13,30.02,29.75,10,10,7,17,5,26,0.06,2,Rain,178